315P/LONEOS (2016)

Japanese version
Home page
Updated on March 25, 2017

---------------------------------------------------------------------

* Profile

Designation 315P/2013 V6
Recovery Date November 6, 2013
Magnitude 21.6 mag
Recoverer M. Micheli, Y. Fernandez, C. Lisse, H. Weaver (New Mexico)

* Pictures

* Orbital Elements

Epoch 2016 Nov. 28.0 TT = JDT 2457720.5
T 2016 Dec. 6.82738 TT                                  MPCW
q   2.4204210            (2000.0)            P               Q
n   0.08780382     Peri.   67.18909     -0.68638415     -0.66768535
a   5.0133393      Node    69.55182     +0.50163411     -0.72163023
e   0.5172038      Incl.   17.91506     +0.52653587     -0.18288270
P  11.23
From 1411 observations 2004 Nov. 3-2017 Mar. 7, mean residual 0".6.

* Finding Charts

* Magnitudes Graph

        m1 = 11.0 + 5 log d + 10.0 log r  [    ,-300]  (             - 2016 Feb. 10)
        m1 =  3.2 + 5 log d + 25.0 log r  [-300,    ]  (2016 Feb. 10 -             )

---------------------------------------------------------------------

The orbital elements are published on M.P.E.C. 2017-E59.
The charts are made with StellaNavigator Ver.8 (AstroArts).
The magnitudes graphs are made with Comet for Windows.

---------------------------------------------------------------------

Copyright(C) Seiichi Yoshida (comet@aerith.net). All rights reserved.